This is the latest recevied weather packets stored in our database for station/object SR1WXW. If no packets are shown the sender has not sent any weather packets the latest 10 day(s).
| Time | Temp. | Humidity | Pressure | Rain* | Wind** | Luminosity | Snow |
|---|---|---|---|---|---|---|---|
| 1777546399 | 15.56° C | 48% | 1026 hPa | 0 mm | - | - | - |
| 1777546098 | 15.56° C | 48% | 1026.2 hPa | 0 mm | - | - | - |
| 1777545798 | 15.56° C | 48% | 1026.3 hPa | 0 mm | - | - | - |
| 1777545498 | 15.56° C | 48% | 1026.2 hPa | 0 mm | - | - | - |
| 1777545199 | 15.56° C | 50% | 1026.1 hPa | 0 mm | - | - | - |
| 1777544899 | 15.56° C | 51% | 1026.1 hPa | 0 mm | - | - | - |
| 1777544599 | 15° C | 50% | 1026.2 hPa | 0 mm | - | - | - |
| 1777544299 | 15° C | 51% | 1026.2 hPa | 0 mm | - | - | - |
| 1777543999 | 15.56° C | 50% | 1026.3 hPa | 0 mm | - | - | - |
| 1777543699 | 15.56° C | 51% | 1026.2 hPa | 0 mm | - | - | - |
| 1777543399 | 15.56° C | 51% | 1026.3 hPa | 0 mm | - | - | - |
| 1777543099 | 15° C | 52% | 1026.3 hPa | 0 mm | - | - | - |
| 1777542799 | 15° C | 52% | 1026.3 hPa | 0 mm | - | - | - |
| 1777542499 | 15° C | 54% | 1026.2 hPa | 0 mm | - | - | - |
| 1777542199 | 14.44° C | 55% | 1026.2 hPa | 0 mm | - | - | - |
| 1777541899 | 13.89° C | 55% | 1026.2 hPa | 0 mm | - | - | - |
| 1777541599 | 13.89° C | 55% | 1026.2 hPa | 0 mm | - | - | - |
| 1777541299 | 13.89° C | 55% | 1026.4 hPa | 0 mm | - | - | - |
| 1777540999 | 13.89° C | 55% | 1026.4 hPa | 0 mm | - | - | - |
| 1777540699 | 13.33° C | 56% | 1026.5 hPa | 0 mm | - | - | - |
| 1777540399 | 13.33° C | 56% | 1026.6 hPa | 0 mm | - | - | - |
| 1777540099 | 12.78° C | 57% | 1026.5 hPa | 0 mm | - | - | - |
| 1777539799 | 12.78° C | 56% | 1026.6 hPa | 0 mm | - | - | - |
| 1777539499 | 12.78° C | 57% | 1026.5 hPa | 0 mm | - | - | - |
| 1777539199 | 12.22° C | 58% | 1026.5 hPa | 0 mm | - | - | - |
* Rain latest hour (hover to see other rain measurements)
** Current wind speed in m/s (hover to see current wind gust speed)